Dewpoint
71 72 75 73 73 74 74 74 75 75 75 75 75 75 75 75 75 75 75 75 75 75 74 74 74 74 74 74 74 74 73 73 73 73 73 73 72 71 70 71 71 71 70 70 69 68 69 71 72 72 72 72 71 71 70 69 69 69 69 69 69 68 67 67 65 65 64 64 63 63 63 63 64 63 64 64 65 64 64 63 63 59 60 62 64
72 73 73 73 72 73 74 72 75 75 75 75 75 75 75 75 75 75 75 75 75 75 74 74 74 74 74 74 74 73 73 73 73 73 73 72 71 70 69 70 71 70 69 69 68 69 68 68 72 72 71 71 71 70 70 70 69 69 69 69 69 68 67 65 64 64 64 64 64 63 63 62 63 63 64 64 64 64 63 64 63 61 61 64 63
73 73 73 72 71 72 72 73 72 75 75 75 75 75 75 75 75 75 75 75 75 74 74 74 74 74 74 74 74 73 73 73 73 73 73 72 71 71 70 70 70 69 69 69 68 68 67 68 70 71 71 70 70 70 70 70 69 69 69 69 68 67 67 66 65 64 64 64 63 62 63 63 63 63 63 64 64 64 64 64 63 63 60 62 62
71 72 73 72 71 71 72 72 72 75 75 75 75 75 75 75 75 75 74 74 74 74 74 74 74 74 74 74 73 73 73 73 73 73 73 72 71 71 70 70 69 68 68 68 68 67 67 68 70 70 70 70 69 69 70 70 70 70 69 69 68 67 66 66 66 65 64 64 64 63 61 60 61 63 64 64 64 64 64 64 64 64 62 62 64
72 72 73 72 71 70 71 70 72 72 75 75 75 75 75 75 75 74 74 74 74 74 74 74 74 74 74 73 73 73 73 73 73 73 72 72 71 70 70 69 68 68 67 68 67 68 68 68 68 69 69 69 68 69 69 70 70 70 69 68 67 67 66 66 65 65 65 64 62 61 59 60 61 63 64 64 65 64 64 64 63 63 62 63 63
71 72 72 72 71 68 70 72 71 69 71 75 75 75 75 75 74 74 74 74 74 74 74 74 74 74 74 74 73 73 73 73 73 73 72 72 71 71 70 68 68 68 67 68 68 68 68 68 67 67 68 68 68 68 68 70 70 70 69 69 68 67 66 66 66 65 65 65 64 62 61 60 60 61 63 64 64 64 64 64 64 64 63 63 63
71 72 71 70 70 70 69 70 72 68 70 73 75 75 75 74 74 74 74 74 74 74 74 74 74 73 73 73 73 72 72 70 71 72 72 72 71 71 70 69 68 68 68 68 67 67 68 67 67 66 67 68 68 69 69 70 70 69 69 68 67 67 67 67 66 66 65 63 62 61 61 60 60 61 64 63 63 63 63 63 63 62 62 62 62
72 72 71 70 70 69 69 69 71 69 69 70 74 75 74 74 74 74 74 74 74 74 74 74 74 73 73 73 72 72 72 71 71 70 71 72 71 71 71 70 70 69 68 68 68 68 67 67 67 66 66 68 69 70 68 68 69 69 69 68 68 68 67 67 66 65 63 59 60 62 62 60 60 59 63 63 63 63 63 63 63 63 63 62 62
71 71 70 70 70 69 67 68 70 72 71 71 70 75 74 74 74 74 74 74 74 74 74 73 73 72 73 72 72 72 71 71 70 70 72 71 71 71 71 70 70 70 70 69 70 69 68 67 67 67 67 68 69 69 68 69 69 69 68 68 68 67 67 66 65 63 61 60 60 60 60 60 60 60 62 62 62 62 63 63 63 62 62 62 62
71 71 71 70 68 68 68 67 68 70 70 71 70 73 74 74 74 74 74 74 74 74 73 73 72 72 72 71 71 71 71 71 70 70 72 72 71 71 70 70 70 70 70 70 70 70 69 69 68 67 68 69 69 68 68 69 69 69 68 68 67 67 66 66 63 62 61 61 58 59 62 61 57 59 63 63 62 63 62 61 62 62 62 62 62
69 71 71 70 70 69 69 68 68 70 71 70 70 69 74 74 74 74 74 74 74 73 73 73 73 72 70 71 71 71 70 70 69 69 72 72 71 71 70 70 70 70 70 70 70 70 70 69 69 67 68 69 68 68 68 69 68 68 68 68 68 67 67 66 62 57 59 58 60 63 62 62 60 62 63 61 61 62 62 62 62 62 62 61 62
68 70 70 70 70 69 69 69 69 69 69 71 71 71 72 72 74 74 74 73 73 73 73 72 72 72 70 70 70 70 70 69 68 69 72 72 71 71 70 70 70 71 70 69 69 69 70 69 68 69 69 69 68 68 69 69 69 69 69 68 68 67 67 65 57 56 58 59 59 62 61 58 59 60 62 61 63 63 61 62 62 62 62 62 62
67 68 69 69 69 69 68 67 67 67 67 68 70 72 72 71 72 73 73 73 73 73 73 72 72 72 71 70 70 71 71 72 71 71 72 72 72 71 71 70 70 70 69 69 68 68 68 68 68 68 68 68 68 68 69 69 69 69 69 68 67 67 67 64 55 55 56 59 60 60 59 62 62 61 61 61 63 62 61 62 62 61 61 61 61
68 68 67 68 69 69 67 67 67 67 67 68 71 72 72 72 72 73 71 73 73 73 72 72 72 72 72 71 72 72 72 72 72 72 72 72 72 71 71 70 70 69 68 68 68 68 67 68 68 68 67 67 68 68 68 69 69 68 68 68 68 67 67 65 60 55 55 58 62 60 62 62 60 62 62 62 62 61 61 61 61 61 61 61 61
69 69 68 67 68 69 68 66 66 67 67 68 68 71 72 71 71 71 71 73 73 72 72 72 72 72 72 72 72 72 72 72 72 72 70 71 72 71 71 71 70 69 68 69 69 68 67 68 68 68 68 67 67 68 68 68 68 68 68 68 68 67 65 57 54 55 56 57 61 61 61 63 65 65 62 62 62 61 62 60 61 61 62 61 61
68 69 69 69 69 69 69 67 64 65 66 67 67 67 70 70 71 71 72 72 72 72 72 72 72 72 72 72 72 72 72 72 71 72 72 72 71 71 71 71 70 70 70 69 69 68 68 68 69 68 68 67 68 68 68 68 68 68 68 68 67 66 65 64 59 59 60 62 62 62 62 61 65 64 62 62 61 61 61 60 61 61 61 60 60
54 63 68 68 68 68 66 64 65 65 65 67 66 67 68 70 69 70 69 71 72 72 72 72 72 72 72 72 72 72 72 72 72 72 72 72 72 72 72 71 71 70 70 69 69 68 67 68 68 68 67 67 68 68 68 68 68 68 68 68 67 66 66 65 59 61 61 61 61 61 63 60 62 64 62 62 61 61 61 61 61 60 60 60 61
51 52 55 63 69 69 69 69 68 68 67 66 65 65 66 67 70 68 67 69 72 72 72 72 72 72 72 72 72 72 72 70 70 69 67 70 71 71 71 71 70 70 70 69 68 68 68 68 68 68 67 68 68 68 68 68 68 67 68 68 68 67 66 66 61 61 61 63 61 61 62 64 64 62 62 61 61 61 61 61 61 60 61 60 60
50 49 49 52 59 67 69 69 69 69 69 69 69 68 66 67 69 68 68 69 72 72 72 72 72 72 72 73 73 71 71 71 69 69 68 69 70 71 70 71 71 70 69 69 70 69 68 68 69 69 68 67 67 67 68 68 68 67 68 68 67 66 66 65 60 60 61 62 62 61 62 65 65 64 62 62 62 61 61 60 61 60 60 60 60
53 52 52 49 50 55 65 67 67 68 69 69 69 69 68 67 68 68 68 70 72 72 72 72 72 72 73 73 72 72 72 70 69 68 69 69 68 69 70 71 71 71 69 70 70 69 69 69 69 68 68 67 67 67 67 68 68 68 68 68 67 66 65 62 60 60 61 60 62 61 64 66 64 62 62 62 62 61 61 61 61 60 60 60 60
53 52 53 52 50 50 56 64 66 68 69 68 69 69 69 68 69 69 68 68 72 73 73 73 72 72 72 72 70 72 71 72 71 68 69 69 68 68 70 71 70 70 70 70 70 69 69 68 67 67 67 67 66 66 66 67 68 68 68 68 67 65 64 63 63 62 61 61 62 60 66 66 62 62 62 62 61 61 61 60 60 60 59 60 60
49 49 51 50 51 51 51 57 65 67 68 68 68 68 69 69 69 69 69 69 69 72 72 72 72 71 71 72 72 71 68 70 72 69 70 69 68 69 69 70 70 71 70 70 70 69 68 67 67 67 67 66 65 63 65 67 68 68 68 68 65 63 65 64 64 61 62 62 63 64 66 65 61 62 62 61 61 61 60 60 60 59 59 60 59
48 49 50 51 53 53 52 53 59 65 68 68 68 68 68 69 69 69 69 68 70 71 71 71 70 71 69 69 71 70 67 69 71 70 69 68 69 69 69 69 71 71 71 70 70 69 69 68 67 67 65 64 59 62 63 64 66 68 68 67 64 64 64 65 64 63 62 63 63 66 65 64 62 61 61 61 61 61 60 60 60 59 59 59 59
49 48 51 52 52 53 54 55 56 61 66 68 69 69 68 68 69 68 68 69 68 70 71 70 69 71 69 71 70 71 69 71 69 70 70 69 69 68 69 69 71 71 70 69 70 69 68 67 66 64 62 61 59 58 61 63 65 67 66 66 64 64 65 64 62 62 63 63 61 66 67 66 64 61 60 61 61 61 60 60 60 59 60 58 59
50 50 50 52 53 54 54 54 55 59 62 67 68 69 69 69 69 68 68 69 68 68 70 70 71 70 71 70 67 70 70 71 71 71 70 70 70 69 69 69 69 69 69 68 67 67 67 64 63 61 61 60 58 60 63 64 67 66 65 65 65 65 64 64 62 62 63 64 64 65 67 67 63 62 60 60 60 61 60 59 60 60 60 59 59
53 47 49 52 52 49 52 54 55 56 60 63 67 68 69 67 67 68 68 68 67 68 68 70 71 72 70 68 69 71 71 71 71 70 70 71 69 69 69 69 69 68 68 67 66 67 67 65 64 62 62 61 60 60 63 65 65 65 65 65 64 65 64 63 63 64 64 64 65 65 67 67 65 62 61 60 60 60 60 59 59 60 60 60 59
47 48 50 51 52 51 51 53 54 56 58 58 62 65 67 68 68 68 67 68 69 68 68 69 69 70 69 70 70 70 71 71 71 70 70 69 69 69 68 67 68 67 68 67 67 67 66 66 65 64 62 61 59 59 59 64 65 64 65 64 64 63 64 63 64 64 64 64 65 66 67 67 66 62 61 60 60 60 60 60 60 60 59 60 60
48 50 50 51 52 50 50 53 55 56 56 54 57 58 60 63 65 66 66 67 68 67 68 68 67 69 70 70 70 70 68 70 70 70 69 69 68 68 68 66 66 66 67 67 66 66 66 66 66 64 62 61 60 59 56 58 63 64 64 64 64 64 64 64 64 65 64 64 64 65 66 66 67 64 61 61 60 60 59 60 60 60 59 59 60
50 51 51 51 51 52 54 53 54 54 55 56 55 55 56 58 61 62 63 63 66 67 68 67 68 68 69 68 69 70 71 67 69 69 69 69 69 68 68 66 66 66 66 67 65 66 66 65 65 64 64 62 61 61 58 56 61 64 63 63 63 63 64 64 65 65 64 64 64 63 66 66 67 65 61 61 60 59 60 61 61 60 59 59 60
50 52 53 51 52 51 52 53 54 53 55 55 55 56 57 58 59 59 61 61 62 65 66 67 68 68 68 68 69 68 69 69 69 68 68 70 69 70 70 67 66 66 66 67 65 65 65 64 65 64 62 62 61 61 59 57 54 61 62 61 61 63 64 64 64 63 64 64 64 63 66 67 66 65 65 62 62 60 60 61 60 60 59 57 59
54 52 52 51 55 51 52 52 53 56 54 51 55 56 57 57 58 59 59 59 61 63 64 65 66 67 68 67 68 69 67 68 69 68 67 68 70 68 68 67 65 66 66 66 67 66 65 64 64 64 63 62 62 61 60 58 55 55 61 61 62 63 63 64 63 63 63 63 63 63 63 66 66 64 65 65 64 62 60 60 61 61 58 59 58
52 53 51 53 54 53 52 55 55 57 56 52 54 54 55 55 56 58 58 58 61 61 63 63 64 65 66 67 67 68 68 69 70 69 68 69 69 68 67 67 65 66 66 66 66 66 65 63 63 64 64 64 62 61 61 58 56 54 58 61 62 63 62 63 63 63 62 63 62 62 62 62 65 64 65 64 65 66 62 62 61 61 60 58 58
51 55 54 56 54 55 55 55 55 56 55 54 53 54 54 53 55 56 58 58 59 60 60 61 62 63 66 66 66 67 67 68 68 70 69 70 69 68 66 66 66 66 66 66 65 65 64 64 63 63 63 62 61 62 60 59 57 56 58 60 62 61 61 62 63 63 62 62 61 60 61 61 61 65 64 65 65 65 65 62 62 61 61 60 58
49 51 55 54 55 57 57 56 55 55 56 55 55 52 53 54 56 56 56 58 59 59 59 61 62 62 62 64 65 65 66 67 66 68 70 69 70 70 67 66 65 66 66 66 65 65 64 63 63 62 61 61 60 60 59 58 55 55 58 60 62 63 62 61 62 63 63 62 61 62 60 60 59 59 59 65 65 65 64 65 62 62 61 60 60
52 53 54 54 57 57 57 57 56 55 54 54 54 53 53 53 52 55 56 57 58 58 60 60 60 61 60 60 61 63 64 65 65 67 68 69 69 69 69 67 66 66 64 65 65 65 65 63 62 61 60 61 60 58 57 56 55 54 58 61 60 61 63 62 63 62 62 63 64 63 63 61 60 59 59 58 65 65 64 64 62 61 61 59 60
54 55 56 54 54 56 57 55 55 54 55 55 54 55 54 54 53 52 54 56 56 57 57 58 58 60 61 60 57 58 61 64 64 65 66 68 68 68 69 69 67 66 65 64 64 64 64 63 62 61 61 59 58 57 56 55 55 55 59 62 62 63 62 62 63 61 61 63 61 63 64 63 63 61 61 59 60 63 64 63 63 65 62 60 57
55 54 55 55 54 56 57 55 55 54 54 54 54 54 54 53 53 53 53 54 55 55 56 58 58 58 59 61 61 61 64 62 64 64 65 65 67 66 67 67 67 67 66 65 64 64 64 61 63 62 62 59 55 53 54 55 55 58 59 62 62 63 62 62 62 62 60 62 62 62 63 63 63 63 63 61 60 61 64 64 64 63 63 62 57
54 54 55 55 54 54 54 55 55 54 54 54 54 54 53 53 52 52 54 53 54 54 56 56 58 58 58 56 56 59 60 57 63 63 64 63 64 64 66 67 67 66 67 66 64 64 64 64 62 62 61 58 55 53 53 54 55 56 59 61 63 62 62 63 62 62 61 60 62 61 61 62 63 62 62 61 57 60 61 63 64 63 63 62 60
54 54 54 54 54 55 55 56 54 54 54 54 54 54 54 54 52 52 52 52 53 52 54 53 54 57 57 56 56 59 59 59 58 59 61 63 62 63 63 63 67 67 66 66 65 64 63 63 62 62 61 57 55 54 54 55 55 56 55 59 61 62 63 63 63 61 62 61 60 61 60 62 62 62 63 62 60 58 60 61 60 60 61 63 63
54 54 54 53 54 55 55 54 54 53 53 53 52 51 51 50 50 51 51 52 52 52 54 52 54 54 55 56 55 56 56 59 59 57 58 60 60 60 60 61 65 67 66 65 64 64 63 62 62 59 60 58 58 54 57 56 57 57 58 58 59 61 61 62 62 61 62 62 62 61 61 60 61 62 61 61 60 58 59 60 60 58 57 61 63
53 53 54 54 54 53 54 53 53 54 53 51 51 50 49 49 51 51 51 51 51 53 53 54 54 54 55 54 55 55 55 55 57 58 60 59 59 60 60 62 64 66 65 65 65 64 63 63 62 60 57 58 57 55 53 56 56 57 59 58 59 59 61 62 61 61 60 61 61 61 61 61 61 61 61 60 59 59 58 58 59 59 58 56 60
52 53 53 54 54 54 54 54 53 53 52 53 52 52 51 50 50 49 50 50 51 50 51 53 53 54 55 55 56 55 55 55 56 57 60 61 60 61 63 65 66 66 66 66 66 65 64 63 61 59 57 56 57 56 54 56 54 53 54 56 57 58 59 60 59 59 60 60 61 62 62 61 59 61 61 61 59 58 57 58 59 58 57 57 55
53 53 54 54 54 54 54 54 52 52 52 53 52 51 51 53 52 51 50 50 52 53 51 51 53 52 55 55 55 56 55 55 55 56 57 59 62 62 62 64 64 64 64 65 65 64 64 64 62 58 55 56 56 58 59 57 50 52 52 51 49 50 57 57 60 59 60 60 60 59 59 58 57 58 60 60 57 57 56 57 58 58 58 58 55
52 53 53 54 54 54 54 53 53 53 53 53 52 52 52 53 53 52 52 51 51 52 53 53 54 54 53 55 55 56 55 55 54 54 56 57 60 61 62 63 64 65 64 64 64 64 63 64 62 59 57 55 55 57 59 59 52 49 51 49 51 51 48 53 56 58 59 60 60 59 58 56 56 57 58 56 55 57 57 58 56 57 58 56 53
52 53 54 54 54 55 54 53 52 52 52 52 52 52 52 53 52 53 52 51 51 51 52 53 52 53 52 53 53 55 55 54 55 55 55 57 58 61 61 62 63 65 64 64 63 64 64 63 61 60 58 56 55 57 58 57 55 55 52 50 52 51 50 51 55 56 58 56 58 58 58 58 56 58 56 51 53 57 57 55 57 57 60 57 56
52 53 54 54 54 53 53 52 51 51 51 51 51 51 51 51 51 50 49 49 48 49 48 50 50 50 50 53 53 53 54 55 55 54 54 55 57 59 62 63 63 64 65 64 64 63 63 63 63 62 59 59 58 57 57 60 57 57 55 56 55 50 51 51 52 50 57 57 56 54 55 57 57 58 56 54 54 53 56 56 59 59 59 58 56
51 52 52 52 53 53 53 52 51 51 51 51 51 51 51 51 52 51 49 49 47 48 50 50 50 49 52 53 52 54 53 53 55 55 55 55 56 57 58 61 63 64 64 65 64 63 63 63 63 63 62 61 62 59 58 59 59 58 56 58 57 57 55 54 51 51 51 54 56 55 52 52 55 56 56 54 56 57 59 56 56 54 57 59 59
51 51 52 52 52 52 52 51 51 51 50 51 50 50 51 51 51 51 50 49 48 49 49 50 50 50 49 51 51 52 53 52 53 54 55 55 55 56 57 57 60 63 64 63 64 64 64 64 64 63 64 63 61 61 62 60 58 58 59 58 58 56 54 53 51 49 46 49 50 52 55 57 57 60 59 58 57 58 61 60 57 56 58 58 60
50 51 51 52 52 52 51 51 51 50 50 50 50 50 50 50 50 50 49 49 48 48 48 48 48 49 50 50 51 51 52 53 53 53 55 54 55 56 56 56 57 58 63 62 63 63 64 63 64 64 63 63 63 62 63 62 59 58 58 58 57 56 54 54 51 50 46 47 46 49 52 58 61 60 61 61 59 60 61 61 58 57 61 62 61
51 51 51 51 51 51 51 50 49 49 49 50 49 50 50 50 49 49 49 48 48 48 48 47 48 49 49 50 50 50 50 51 52 53 53 54 55 55 55 56 57 58 60 60 63 62 63 63 63 63 64 63 63 63 62 63 61 59 59 58 57 57 56 54 53 52 51 51 47 49 52 55 53 54 60 61 61 61 61 62 63 59 61 62 61
50 50 50 50 51 50 50 49 49 48 49 49 49 50 50 49 49 49 48 48 48 48 47 47 47 48 48 49 49 49 50 50 51 52 53 53 55 55 56 56 56 59 58 57 61 63 63 63 63 65 63 63 63 63 62 62 62 61 59 58 58 57 56 55 54 54 54 53 49 49 51 49 48 52 60 61 60 59 59 62 62 62 62 61 60